Location: Atherton
(17.2661°S, 145.4859°E)
Time: 04:40:34
(UTC+10:00)

Transit 4A - Pass Details

Date: 30 June 2025
Orbit: 868 x 973 km, 66.8° (Epoch: 19 July)

Event Time Altitude Azimuth Distance (km) Brightness Sun altitude
Rises 05:51:29 0° 174° (S) 3,661 10.9 -13.4°
Reaches altitude 10° 05:55:28 10° 150° (SSE) 2,720 10.5 -12.5°
Maximum altitude 05:58:44 14° 119° (ESE) 2,416 10.6 -11.8°
Drops below altitude 10° 06:01:59 10° 88° (E) 2,718 11.6 -11.1°
Sets 06:05:55 0° 64° (ENE) 3,656 13.3 -10.2°
